Lancaster, OH

12:32 PM EDT on September 22, 2017 (GMT -0400)
Fairfield County

Weather History for KLHQ - December, 2011

Change the Weather History Date:

Saturday, December 3, 2011

  Actual Average Record
Temperature  
Mean Temperature 40 °F -  
Max Temperature 54 °F 42 °F 72 °F (1982)
Min Temperature 25 °F 25 °F -4 °F (1966)
Degree Days  
Heating Degree Days 26    
Moisture  
Dew Point 30 °F    
Average Humidity 71    
Maximum Humidity 96    
Minimum Humidity 45    
Precipitation  
Precipitation 0.00 in - - ()
Sea Level Pressure  
Sea Level Pressure 30.44 in    
Wind  
Wind Speed 4 mph (SE)    
Max Wind Speed 9 mph    
Max Gust Speed -    
Visibility 8 miles    
Events      
Averages and records for this station are not official NWS values.
T = Trace of Precipitation, MM = Missing Value Source: NWS Daily Summary

Daily Weather History Graph

Daily Weather History Graph

Search for Another Location

Airport or City:

Trip Planner

Search our weather history database for the weather conditions in past years. The results will help you decide how hot, cold, wet, or windy it might be!

Date:

Astronomy

Dec. 03, 2011 Rise Set
Actual Time 7:34 AM EST 5:06 PM EST
Civil Twilight 7:04 AM EST 5:36 PM EST
Nautical Twilight 6:30 AM EST 6:09 PM EST
Astronomical Twilight 5:58 AM EST 6:42 PM EST
Moon 1:09 PM EST (12/3) 1:02 AM EST (12/3)
Length of Visible Light 10h 31m
Length of Day
9h 31m
Waxing Gibbous, 62% of the Moon is Illuminated
Dec 3
Waxing Gibbous
Dec 10
Full
Dec 17
Last Quarter
Dec 24
New
Jan 1
First Quarter

Hourly Weather History & Observations

Time (EST) Temp. Windchill Dew Point Humidity Pressure Visibility Wind Dir Wind Speed Gust Speed Precip Events Conditions
12:53 AM 26.1 °F - 24.1 °F 92% 30.53 in 4.0 mi Calm Calm - N/A   Clear
1:53 AM 25.0 °F - 23.0 °F 92% 30.52 in 4.0 mi Calm Calm - N/A   Clear
2:53 AM 25.0 °F - 23.0 °F 92% 30.52 in 4.0 mi Calm Calm - N/A   Clear
3:53 AM 26.1 °F - 24.1 °F 92% 30.50 in 5.0 mi Calm Calm - N/A   Clear
4:53 AM 28.9 °F 25.2 °F 28.0 °F 96% 30.50 in 5.0 mi South 3.5 mph - N/A   Clear
5:53 AM 30.0 °F 26.5 °F 28.0 °F 92% 30.51 in 5.0 mi SE 3.5 mph - N/A   Clear
6:53 AM 30.0 °F 26.5 °F 28.0 °F 92% 30.51 in 6.0 mi South 3.5 mph - N/A   Clear
7:53 AM 28.9 °F 22.8 °F 27.0 °F 92% 30.51 in 4.0 mi SSE 5.8 mph - N/A   Clear
8:53 AM 34.0 °F 28.8 °F 30.9 °F 89% 30.50 in 6.0 mi SE 5.8 mph - N/A   Clear
9:53 AM 37.9 °F 32.1 °F 32.0 °F 79% 30.50 in 8.0 mi SE 8.1 mph - N/A   Clear
10:53 AM 43.0 °F 38.8 °F 33.1 °F 68% 30.49 in 10.0 mi SE 6.9 mph - N/A   Clear
11:53 AM 48.0 °F - 33.1 °F 56% 30.47 in 10.0 mi SE 4.6 mph - N/A   Clear
12:53 PM 52.0 °F - 33.1 °F 49% 30.43 in 10.0 mi ESE 4.6 mph - N/A   Clear
1:53 PM 53.1 °F - 35.1 °F 50% 30.41 in 10.0 mi ESE 6.9 mph - N/A   Clear
2:53 PM 54.0 °F - 34.0 °F 47% 30.40 in 10.0 mi SSE 6.9 mph - N/A   Clear
3:53 PM 54.0 °F - 33.1 °F 45% 30.39 in 10.0 mi SE 9.2 mph - N/A   Clear
4:53 PM 50.0 °F - 33.1 °F 52% 30.38 in 10.0 mi SE 5.8 mph - N/A   Clear
5:53 PM 48.9 °F - 32.0 °F 52% 30.38 in 10.0 mi SSE 5.8 mph - N/A   Clear
6:53 PM 46.0 °F 43.1 °F 32.0 °F 58% 30.36 in 10.0 mi SE 5.8 mph - N/A   Clear
7:53 PM 43.0 °F 39.5 °F 32.0 °F 65% 30.37 in 10.0 mi SE 5.8 mph - N/A   Clear
8:53 PM 42.1 °F 37.7 °F 32.0 °F 67% 30.35 in 10.0 mi SE 6.9 mph - N/A   Clear
9:53 PM 43.0 °F 38.8 °F 33.1 °F 68% 30.32 in 10.0 mi SE 6.9 mph - N/A   Clear
10:53 PM 42.1 °F 36.6 °F 32.0 °F 67% 30.30 in 10.0 mi SE 9.2 mph - N/A   Clear
11:53 PM 44.1 °F 39.5 °F 32.0 °F 63% 30.30 in 10.0 mi SE 8.1 mph - N/A   Clear